User: anonymous   Login
Location: Unspecified
(0.0000°N, 0.0000°E)
Time: 02:50:26
(UTC+00:00)
Language:

PACE - Orbit

View from above orbital plane
View from above orbital plane
View from above satellite
View from above satellite

Ground track
Ground track

The orbit data is extracted from the following two-line orbital elements,

1 40022U 14033N   18173.26140107 +.00000181 +00000-0 +25523-4 0  9991
2 40022 097.9068 088.5966 0013657 164.9738 195.1887 14.88464205217529
Epoch (UTC): 22 June 2018 06:16:25
Eccentricity: 0.0013657
inclination: 97.9068°
perigee height: 593 km
apogee height: 612 km
right ascension of ascending node: 88.5966°
argument of perigee: 164.9738°
revolutions per day: 14.88464205
mean anomaly at epoch: 195.1887°
orbit number at epoch: 21752

The dashed part of the orbit path shows where the satellite is in the earth's shadow,  

DLR